Temp
75 74 74 75 76 76 75 75 75 75 76 76 76 77 77 76 76 76 76 76 77 78 78 78 78 78 78 77 77 76 76 75 75 76 77 78 78 78 78 76 76 77 76
77 75 74 74 75 76 76 75 75 75 76 76 76 76 76 76 76 76 76 76 77 78 78 78 78 78 77 76 75 75 75 75 75 76 77 78 78 78 78 76 75 76 76
76 75 75 74 75 75 76 76 76 76 76 76 76 76 76 76 76 76 76 76 77 78 78 78 78 77 76 75 74 75 75 75 75 75 76 73 75 77 77 75 75 75 76
77 75 74 74 74 75 75 75 76 76 76 76 76 76 76 76 76 76 75 75 76 78 78 78 77 76 75 74 74 74 75 75 74 75 75 77 79 77 77 76 76 76 76
77 77 75 73 74 74 75 75 75 76 75 75 76 76 76 76 76 76 75 75 76 78 78 78 77 75 74 73 73 74 74 74 73 74 76 77 74 77 77 76 76 75 75
79 77 72 72 73 74 75 75 75 74 74 74 75 75 76 76 76 75 75 75 76 77 78 76 75 74 73 73 73 73 73 73 72 72 75 78 76 77 77 76 75 74 74
79 73 73 71 73 74 74 74 74 74 73 74 74 74 75 75 75 74 74 75 76 76 76 75 74 73 72 72 72 72 72 71 74 76 77 75 76 77 77 76 74 74 74
76 74 73 73 72 73 74 73 73 73 73 73 74 74 74 74 74 74 74 74 74 74 73 73 72 72 72 72 72 72 70 70 74 73 73 72 74 77 77 76 74 74 74
76 73 72 72 73 72 71 72 71 72 72 72 73 73 73 72 73 74 74 74 74 73 73 72 72 72 72 72 72 71 70 69 70 72 76 71 74 76 77 76 74 74 74
75 73 71 71 71 72 72 71 71 71 71 71 72 72 71 72 72 73 73 73 73 72 72 72 72 71 71 71 71 70 69 69 72 71 70 73 75 76 77 76 75 74 74
75 72 72 71 71 71 71 72 71 72 71 71 71 71 70 70 71 72 71 71 72 71 71 71 71 70 70 70 70 70 69 68 70 70 69 72 75 77 77 75 74 73 72
72 72 72 71 70 70 75 72 71 72 72 72 71 70 70 70 70 73 71 70 70 70 70 70 70 69 69 67 67 69 67 71 69 68 68 71 74 75 74 73 72 71 71
75 74 74 73 72 72 73 69 71 71 70 70 70 70 70 72 71 70 68 68 66 69 67 67 67 67 67 67 68 66 69 69 66 66 68 70 73 75 74 73 72 71 70
78 75 75 75 74 73 72 71 71 71 71 70 70 70 69 68 69 68 68 67 65 65 64 64 64 65 66 69 69 69 68 68 65 64 66 68 70 73 73 72 71 70 69
79 77 75 76 75 75 73 73 72 72 71 71 71 71 71 69 70 69 69 68 67 66 65 64 65 65 66 67 67 69 67 66 65 63 63 66 68 71 72 71 70 69 68
80 78 76 76 76 76 76 74 74 74 72 72 72 72 72 71 70 70 69 68 68 67 68 67 65 64 65 65 65 67 65 65 63 61 62 63 65 67 69 69 69 68 68
79 80 77 76 76 76 77 74 75 75 74 74 73 71 73 72 69 69 70 68 70 70 67 68 67 64 62 63 64 64 63 62 61 60 60 61 62 63 65 67 68 67 67
76 79 79 79 76 76 77 73 74 71 73 69 70 70 72 71 70 69 69 70 71 70 67 65 62 60 60 60 59 61 62 62 61 60 60 60 60 61 62 64 66 66 66
77 79 77 77 75 75 74 73 71 70 69 69 69 69 70 70 70 68 68 69 68 65 63 63 61 61 60 59 61 60 60 61 61 63 61 60 59 58 58 60 61 63 65
74 77 78 76 75 74 72 71 69 69 68 68 70 69 69 71 69 66 65 65 66 64 62 61 62 59 59 60 66 62 60 59 60 62 61 60 58 56 56 56 53 56 61
74 75 75 73 72 73 72 69 67 65 64 62 62 65 67 67 67 65 64 62 63 63 63 62 60 59 59 58 56 56 57 58 59 60 61 58 57 57 55 53 52 51 53
69 72 74 73 71 73 72 66 65 61 59 59 59 58 59 60 62 63 62 61 61 61 61 60 59 57 58 60 57 55 52 55 56 58 59 58 58 57 55 54 54 52 49
64 64 72 71 70 69 63 60 58 58 57 57 56 56 55 56 55 56 57 56 56 58 56 56 57 57 55 55 58 54 49 48 51 54 54 57 57 57 57 55 53 51 50
59 62 67 69 67 66 63 61 62 58 57 56 56 55 54 54 53 53 53 53 53 53 52 52 52 52 54 52 53 55 53 53 48 46 51 52 54 56 54 55 51 50 49
58 58 61 65 65 64 63 63 61 58 56 54 51 50 50 51 52 51 51 51 50 51 51 52 51 50 51 51 51 51 51 51 51 48 45 47 50 52 53 52 50 47 48
56 56 58 61 60 61 59 59 60 56 53 51 49 48 48 49 50 50 51 51 51 51 51 51 51 51 51 50 51 50 50 48 47 48 46 47 46 48 49 49 48 46 45
MSLP
1010.14 1010.32 1010.54 1011.05 1011.33 1011.67 1012.02 1012.27 1012.73 1013.17 1013.70 1014.28 1014.50 1014.90 1015.24 1015.61 1015.83 1016.07 1016.38 1016.68 1016.94 1017.16 1017.30 1017.53 1017.66 1017.71 1017.81 1017.98 1018.06 1018.07 1018.21 1018.36 1018.30 1018.28 1018.35 1018.64 1018.84 1018.96 1019.06 1019.21 1019.29 1019.49 1019.67
1009.66 1010.43 1010.77 1011.24 1011.57 1011.97 1012.25 1012.56 1012.98 1013.29 1013.72 1014.35 1014.96 1015.06 1015.52 1015.81 1016.13 1016.45 1016.82 1017.11 1017.30 1017.53 1017.71 1017.80 1017.96 1018.04 1018.06 1018.08 1018.20 1018.29 1018.43 1018.52 1018.56 1018.59 1018.70 1018.90 1019.09 1019.19 1019.13 1019.51 1019.68 1019.84 1020.00
1009.54 1010.41 1010.81 1011.45 1011.78 1012.20 1012.60 1012.89 1013.26 1013.58 1014.00 1014.59 1015.04 1015.31 1015.73 1016.01 1016.28 1016.64 1017.03 1017.33 1017.62 1017.82 1017.90 1018.15 1018.31 1018.37 1018.33 1018.40 1018.40 1018.56 1018.80 1018.90 1019.00 1019.03 1019.04 1019.13 1019.20 1019.39 1019.64 1019.89 1020.05 1020.23 1020.32
1009.60 1010.35 1010.72 1011.17 1011.79 1012.23 1012.72 1013.10 1013.57 1013.97 1014.16 1014.75 1015.17 1015.49 1015.95 1016.34 1016.55 1016.83 1017.11 1017.40 1017.71 1017.99 1018.17 1018.27 1018.53 1018.80 1018.72 1018.80 1018.71 1018.87 1019.18 1019.38 1019.50 1019.55 1019.49 1019.46 1019.44 1019.53 1019.80 1020.02 1020.23 1020.41 1020.61
1009.84 1010.46 1010.68 1011.13 1011.68 1012.23 1012.81 1013.35 1013.66 1014.15 1014.45 1014.80 1015.39 1015.73 1016.03 1016.39 1016.79 1017.02 1017.25 1017.49 1017.75 1018.10 1018.37 1018.54 1018.81 1019.02 1019.05 1019.03 1018.97 1019.09 1019.45 1019.64 1019.73 1019.79 1019.60 1019.54 1019.64 1019.66 1019.91 1020.16 1020.43 1020.62 1020.71
1009.62 1010.20 1011.00 1011.21 1011.59 1012.20 1012.69 1013.32 1013.80 1014.26 1014.72 1014.95 1015.29 1015.67 1016.11 1016.38 1016.74 1017.05 1017.33 1017.52 1017.72 1018.03 1018.41 1018.66 1018.86 1019.03 1019.10 1019.17 1019.10 1019.02 1019.39 1019.59 1019.60 1019.84 1019.30 1019.09 1019.48 1019.59 1019.94 1020.14 1020.39 1020.67 1020.87
1009.73 1010.29 1011.28 1011.70 1011.82 1012.06 1012.52 1013.09 1013.59 1014.09 1014.63 1014.96 1015.27 1015.57 1016.03 1016.35 1016.68 1017.01 1017.29 1017.45 1017.61 1017.89 1018.29 1018.52 1018.79 1019.09 1019.07 1018.97 1018.97 1019.02 1019.11 1019.34 1019.58 1019.27 1019.23 1019.53 1019.15 1019.39 1019.93 1020.33 1020.54 1020.75 1020.93
1009.70 1010.50 1011.09 1011.77 1012.18 1012.26 1012.42 1012.82 1013.36 1013.97 1014.40 1014.83 1015.09 1015.49 1015.85 1016.32 1016.58 1016.95 1017.24 1017.49 1017.69 1017.87 1018.09 1018.38 1018.53 1018.81 1018.91 1019.03 1019.02 1018.93 1018.94 1019.32 1019.61 1019.54 1019.17 1019.68 1019.45 1019.76 1020.06 1020.34 1020.71 1020.89 1021.07
1009.59 1010.36 1011.01 1011.67 1012.23 1012.58 1012.60 1012.72 1013.25 1013.81 1014.36 1014.92 1015.19 1015.49 1015.89 1016.32 1016.67 1017.01 1017.28 1017.61 1017.86 1018.04 1018.22 1018.35 1018.52 1018.63 1018.81 1018.90 1018.96 1018.94 1018.74 1019.40 1019.60 1019.38 1019.39 1019.78 1019.60 1019.56 1019.87 1020.45 1020.74 1021.01 1021.24
1009.96 1010.50 1011.13 1011.61 1012.15 1012.68 1013.03 1013.12 1013.33 1013.76 1014.40 1014.97 1015.35 1015.58 1015.98 1016.40 1016.78 1017.16 1017.53 1017.85 1018.19 1018.38 1018.56 1018.71 1018.76 1018.83 1018.93 1019.01 1019.14 1019.05 1018.93 1019.79 1019.42 1019.54 1019.58 1019.78 1019.79 1019.74 1019.89 1020.13 1020.67 1020.99 1021.25
1010.41 1010.75 1011.24 1011.62 1012.01 1012.64 1013.12 1013.44 1013.66 1013.95 1014.36 1014.95 1015.41 1015.75 1016.12 1016.50 1016.90 1017.14 1017.54 1017.96 1018.37 1018.69 1018.76 1018.92 1019.08 1019.31 1019.37 1019.35 1019.24 1019.12 1019.18 1019.60 1019.61 1019.65 1019.79 1019.61 1019.69 1019.83 1020.05 1020.55 1020.67 1021.09 1021.40
1010.00 1010.55 1010.93 1011.54 1012.08 1012.48 1012.99 1013.54 1013.88 1014.10 1014.45 1014.98 1015.40 1015.91 1016.12 1016.41 1016.70 1016.95 1017.43 1017.78 1018.11 1018.55 1018.84 1018.97 1019.08 1019.21 1019.38 1019.46 1019.42 1019.53 1019.68 1019.68 1019.88 1020.01 1020.10 1019.97 1019.85 1020.01 1020.30 1020.77 1021.19 1021.55 1021.84
1008.60 1009.56 1010.13 1010.80 1011.43 1011.99 1012.45 1013.38 1013.80 1014.08 1014.41 1014.86 1015.28 1015.69 1016.00 1016.34 1016.74 1017.09 1017.51 1017.78 1018.07 1018.40 1018.80 1019.07 1019.31 1019.41 1019.43 1019.57 1019.45 1019.59 1019.55 1020.06 1020.39 1020.48 1020.33 1020.19 1020.11 1020.46 1020.77 1021.09 1021.43 1021.91 1022.21
1007.88 1008.41 1009.15 1009.81 1010.54 1011.57 1012.16 1012.90 1013.49 1013.90 1014.17 1014.45 1015.01 1015.41 1015.86 1016.27 1016.43 1016.83 1017.14 1017.45 1017.81 1018.17 1018.71 1018.99 1019.24 1019.31 1019.48 1019.40 1019.25 1019.49 1019.72 1020.29 1020.77 1021.09 1020.79 1020.71 1020.45 1020.80 1021.24 1021.55 1021.94 1022.30 1022.61
1007.14 1007.55 1008.23 1009.03 1009.71 1010.34 1011.51 1012.24 1012.87 1013.45 1013.99 1014.37 1014.66 1014.94 1015.20 1015.64 1016.10 1016.40 1016.77 1017.12 1017.50 1017.93 1018.23 1018.70 1018.76 1018.93 1019.22 1019.29 1019.29 1019.48 1019.92 1020.31 1020.75 1021.03 1021.10 1021.14 1021.11 1021.30 1021.51 1022.11 1022.51 1022.90 1023.16
1006.40 1007.19 1007.39 1008.10 1008.93 1009.66 1010.37 1011.27 1012.03 1012.66 1013.22 1013.69 1014.06 1014.32 1014.72 1015.05 1015.37 1015.74 1016.17 1016.63 1016.95 1017.33 1017.48 1017.80 1018.19 1018.55 1018.83 1019.13 1019.44 1019.64 1020.21 1020.57 1021.05 1021.52 1021.52 1021.60 1021.57 1021.84 1022.22 1022.53 1022.86 1023.29 1023.50
1005.49 1006.01 1007.04 1007.60 1008.28 1009.03 1009.48 1010.41 1011.09 1011.54 1012.31 1012.75 1013.19 1013.89 1014.21 1014.49 1014.87 1015.26 1015.75 1016.32 1016.43 1016.72 1017.14 1017.36 1017.95 1018.33 1018.73 1018.89 1019.45 1019.74 1020.30 1020.91 1021.45 1021.86 1022.19 1022.52 1022.62 1022.72 1022.83 1022.87 1023.36 1023.70 1023.84
1004.24 1005.40 1006.27 1007.13 1007.84 1008.62 1009.14 1009.77 1010.46 1011.07 1011.68 1012.46 1012.84 1013.16 1013.69 1014.01 1014.52 1015.05 1015.29 1015.49 1015.71 1016.25 1016.78 1017.28 1017.92 1018.48 1018.82 1019.00 1019.48 1019.97 1020.51 1021.15 1021.80 1022.14 1022.40 1022.86 1023.20 1023.56 1023.57 1023.66 1024.24 1024.29 1024.34
1003.49 1004.67 1005.87 1006.92 1007.67 1008.17 1008.79 1009.37 1010.05 1010.79 1011.55 1012.02 1012.44 1012.93 1013.25 1013.71 1014.06 1014.79 1014.85 1015.02 1015.33 1016.10 1016.81 1017.28 1018.00 1018.38 1018.85 1019.44 1019.49 1020.00 1020.83 1021.22 1021.65 1022.18 1022.65 1023.04 1023.74 1023.98 1024.19 1024.46 1024.67 1025.07 1024.95
1003.44 1004.15 1004.95 1006.16 1007.22 1008.14 1008.93 1009.51 1010.21 1010.97 1011.60 1011.82 1012.13 1012.48 1012.92 1013.18 1013.69 1014.50 1014.60 1014.84 1015.00 1016.07 1016.58 1017.26 1017.86 1018.63 1018.99 1019.53 1020.01 1019.40 1020.26 1021.06 1021.39 1021.79 1022.40 1023.13 1023.85 1024.31 1024.66 1024.92 1025.24 1025.45 1025.36
1003.53 1004.68 1005.54 1006.38 1007.33 1008.05 1008.83 1009.59 1010.43 1011.04 1011.84 1012.36 1012.59 1012.56 1012.64 1012.95 1013.36 1014.01 1014.40 1014.85 1015.40 1015.81 1016.59 1016.87 1017.79 1018.31 1019.05 1019.23 1020.35 1020.96 1021.22 1021.97 1022.20 1022.00 1022.41 1022.81 1023.59 1024.28 1024.70 1025.24 1025.72 1026.26 1026.31
1004.40 1004.67 1005.58 1006.40 1007.10 1007.87 1008.59 1009.43 1010.10 1010.96 1012.10 1012.78 1013.16 1013.33 1013.52 1013.57 1013.74 1014.26 1014.64 1015.28 1015.78 1016.04 1016.62 1017.09 1017.21 1017.96 1018.21 1018.75 1019.49 1020.49 1020.86 1022.58 1022.92 1022.94 1022.94 1023.44 1023.76 1024.16 1024.86 1025.32 1025.86 1026.51 1026.97
1005.66 1005.82 1005.79 1006.23 1007.02 1007.91 1008.76 1009.74 1010.83 1011.54 1012.50 1013.34 1013.75 1013.90 1014.12 1014.39 1014.61 1014.80 1015.09 1015.42 1016.16 1016.39 1016.84 1017.09 1017.44 1017.42 1018.14 1018.79 1018.05 1019.96 1020.20 1021.54 1022.35 1023.25 1023.22 1023.45 1023.81 1024.21 1024.48 1025.50 1026.21 1026.67 1026.98
1007.03 1006.84 1006.60 1006.62 1007.16 1007.87 1008.52 1009.34 1009.96 1010.69 1011.99 1012.71 1013.67 1014.21 1014.40 1014.78 1014.99 1015.18 1015.63 1016.11 1016.51 1017.11 1017.61 1017.73 1018.55 1019.03 1018.49 1018.49 1020.04 1019.79 1020.76 1019.97 1021.70 1023.37 1024.14 1023.96 1023.70 1023.97 1024.25 1025.24 1026.18 1026.86 1026.85
1007.49 1007.75 1007.62 1007.54 1007.79 1008.15 1008.58 1009.01 1009.88 1010.84 1011.41 1012.35 1013.46 1014.32 1014.74 1015.15 1015.16 1015.51 1015.87 1016.45 1016.97 1017.61 1018.04 1017.99 1018.48 1019.58 1019.74 1021.37 1020.18 1020.87 1021.10 1021.28 1022.01 1022.89 1023.82 1024.25 1024.24 1024.47 1024.08 1024.71 1025.99 1027.13 1027.31
1007.86 1008.25 1008.61 1008.52 1008.69 1008.89 1009.05 1009.35 1009.63 1010.42 1011.42 1012.52 1013.51 1014.05 1014.80 1015.09 1015.58 1015.86 1016.09 1016.40 1016.81 1017.26 1017.57 1017.98 1018.50 1019.30 1019.92 1020.01 1020.60 1021.10 1021.05 1021.58 1022.32 1022.57 1023.14 1023.84 1024.22 1025.02 1025.23 1025.24 1025.80 1026.67 1027.53
Wind_Speed
7 13 17 14 15 16 16 18 17 17 17 15 15 15 15 15 15 15 14 13 13 13 14 13 12 14 14 13 13 12 11 11 12 13 15 14 14 11 10 15 13 11 12
16 13 16 14 15 16 16 17 17 18 18 16 14 15 14 14 15 14 13 12 13 13 13 13 12 12 12 12 10 9 10 10 10 11 12 13 13 14 10 13 11 10 12
17 13 14 14 14 16 16 17 17 18 18 16 15 15 14 14 14 14 13 12 12 12 14 13 12 11 11 9 8 8 8 7 7 8 10 5 7 14 15 12 11 11 11
16 13 13 17 15 16 16 16 16 17 18 17 15 15 14 13 14 13 13 12 11 11 12 13 12 10 10 7 5 6 6 4 2 1 0 4 7 13 13 12 11 11 10
14 11 14 17 16 16 16 15 16 16 17 17 15 15 14 14 13 13 12 12 12 11 11 11 11 9 7 6 4 5 6 5 4 4 5 4 5 11 13 11 9 8 8
15 13 13 17 17 17 17 16 16 15 15 16 16 16 15 15 14 13 12 12 12 11 11 10 9 7 6 5 5 7 7 6 7 2 7 9 6 12 12 7 9 10 9
13 13 12 13 15 17 18 18 17 16 15 16 17 16 15 15 14 13 12 12 12 12 11 11 9 6 5 4 2 5 7 7 6 6 5 1 10 15 13 10 10 9 9
14 13 13 14 13 15 17 18 17 16 17 16 17 16 16 14 14 13 12 11 11 12 12 10 10 8 6 2 2 6 6 3 6 6 3 4 11 12 12 10 9 8 8
14 13 12 11 12 11 13 16 17 17 16 15 16 15 14 13 12 12 11 10 11 11 10 10 9 8 6 5 4 6 10 8 2 1 5 2 9 14 14 10 8 7 7
11 11 11 10 10 9 8 13 15 16 15 14 14 14 13 12 11 10 9 9 10 9 8 7 7 6 5 5 6 8 9 9 4 6 4 3 5 7 12 12 9 7 6
8 9 9 10 9 9 7 9 12 15 15 14 12 12 11 6 7 8 8 10 9 8 7 7 6 4 4 5 6 8 5 1 5 4 2 8 8 9 11 8 9 10 13
13 11 11 10 9 9 8 8 7 9 8 8 8 9 6 6 6 8 7 11 11 9 8 8 8 7 6 3 3 5 1 4 4 4 3 10 14 17 18 17 16 15 15
19 13 15 14 11 11 8 7 5 5 6 6 8 8 7 6 6 5 3 4 4 7 4 4 4 3 4 3 4 2 1 5 3 3 4 10 15 16 17 17 17 17 17
17 19 18 17 15 11 5 8 7 6 6 6 8 10 6 3 6 6 5 6 6 4 5 4 3 4 4 6 4 3 6 6 4 2 4 9 14 16 20 21 21 21 20
18 18 19 18 17 15 10 9 8 7 6 7 8 10 8 6 7 8 7 7 6 6 5 5 5 4 4 4 4 5 7 8 8 4 4 10 14 17 21 21 21 19 19
17 17 20 20 18 17 15 14 11 9 9 9 8 10 11 7 7 8 8 7 7 7 7 7 6 5 5 5 4 4 6 7 8 6 6 9 14 15 18 19 19 17 17
14 20 19 20 19 18 18 12 11 10 11 10 9 10 12 9 6 8 8 7 8 8 8 6 5 4 5 4 6 3 7 8 8 9 8 7 10 15 16 18 16 14 16
7 20 19 16 19 18 15 10 10 8 9 5 7 8 12 8 6 6 8 8 8 6 5 5 5 4 5 5 4 4 7 8 9 8 8 7 7 7 12 15 12 13 14
7 18 18 16 17 17 12 8 9 9 7 5 5 4 7 7 6 5 4 6 7 6 5 5 3 3 4 3 5 5 6 8 9 8 10 11 9 8 7 15 15 9 11
7 17 20 15 16 13 7 7 5 5 4 4 6 6 8 8 7 6 5 5 8 7 6 4 4 1 3 5 5 7 7 6 7 9 10 10 9 9 8 8 7 8 10
10 12 15 16 13 11 8 7 6 6 4 4 4 3 6 5 6 7 4 6 4 7 6 8 4 6 2 4 5 4 5 5 6 7 7 10 11 9 9 7 5 4 6
9 11 15 14 14 12 8 3 4 5 4 4 4 6 7 5 4 4 5 5 3 5 5 5 7 4 5 7 6 4 5 3 5 3 7 7 10 9 9 8 8 8 7
12 9 12 14 15 9 9 8 6 6 5 3 3 4 6 6 7 7 6 8 5 4 4 3 2 5 4 3 11 3 4 5 5 3 4 5 9 7 9 10 10 9 9
8 10 5 10 11 10 12 8 12 6 6 3 3 4 4 5 7 9 9 8 10 7 8 8 9 7 5 6 3 5 6 5 5 5 2 3 4 8 7 9 10 9 9
8 8 8 6 5 7 9 10 8 7 5 6 7 8 7 6 8 9 10 11 11 9 10 11 11 11 8 3 4 1 9 7 5 3 4 4 2 1 5 9 8 7 9
7 7 6 5 4 4 4 6 9 12 11 9 8 7 6 5 6 8 11 11 10 9 9 9 9 10 8 8 3 1 3 3 2 3 3 6 6 1 3 4 8 8 7
Wind_Direction
141 148 142 145 140 141 137 134 133 127 123 121 118 112 105 102 99 98 97 95 96 99 99 93 91 94 93 89 85 84 95 101 92 88 88 92 88 78 99 94 98 95 88
138 149 139 141 139 144 143 138 135 134 129 127 123 118 115 112 109 106 103 102 103 102 98 97 92 87 85 83 78 85 89 87 94 98 102 99 86 69 107 94 97 97 95
139 144 137 135 139 144 145 140 140 137 132 132 131 125 123 121 117 114 110 107 107 108 106 99 93 93 87 77 82 82 81 90 97 114 106 96 99 90 90 93 94 92 92
139 145 141 139 141 146 147 144 142 141 137 136 137 132 128 126 124 121 118 115 111 109 109 109 103 95 87 77 71 86 81 72 75 250 331 127 115 110 108 107 105 106 99
137 142 142 141 144 145 145 146 144 146 141 139 140 137 136 135 129 127 124 121 118 113 111 106 102 95 86 75 41 11 52 35 347 314 276 221 140 125 122 117 113 121 103
143 132 143 143 143 145 147 147 146 145 145 143 145 145 144 141 140 135 132 131 129 126 120 111 108 107 95 64 23 353 2 352 325 307 282 148 139 132 127 133 124 115 114
141 130 142 141 145 147 151 151 151 149 149 150 148 149 149 148 144 144 145 143 138 131 125 125 121 119 105 98 22 337 334 337 352 322 309 199 144 137 128 119 122 123 122
132 136 145 147 149 154 153 153 152 153 155 157 154 152 151 152 152 154 154 152 146 140 139 142 141 144 141 149 316 310 302 8 6 339 32 132 129 131 127 126 127 126 125
131 135 144 148 154 157 158 154 153 155 159 157 155 154 153 153 155 158 161 161 153 148 149 150 154 162 173 185 227 272 285 45 342 303 79 60 154 141 138 132 134 132 130
128 138 143 145 151 163 166 155 156 157 155 158 159 154 151 154 155 155 158 155 152 150 150 156 163 171 189 211 239 262 285 29 62 90 90 110 126 157 148 141 140 135 133
127 140 147 153 153 152 153 165 159 160 154 154 155 153 147 149 154 155 152 146 147 155 159 163 164 182 215 233 243 258 310 62 106 88 72 104 130 148 126 123 112 101 94
155 159 158 155 157 151 167 162 159 165 161 160 158 160 159 155 165 165 162 157 159 168 175 175 177 180 192 210 244 278 344 85 96 103 105 110 101 98 102 98 96 97 97
166 162 168 162 161 165 163 157 166 165 158 158 159 165 173 163 175 161 139 155 152 165 169 173 180 203 200 247 258 236 87 101 64 50 100 105 111 112 108 106 107 106 103
174 169 168 167 161 167 148 163 167 170 170 168 171 174 173 172 177 157 165 166 166 162 171 179 189 210 217 242 203 180 97 105 95 54 59 90 106 114 107 100 99 96 95
183 171 171 168 169 168 169 167 169 173 173 179 176 182 189 181 179 168 177 174 172 167 172 185 197 194 212 164 93 84 101 110 101 82 74 86 103 111 110 104 99 96 92
185 184 172 172 173 174 176 170 173 172 177 181 185 186 189 194 178 179 175 178 169 181 186 182 188 179 175 135 110 94 113 99 94 90 88 73 80 98 104 103 98 98 98
184 182 176 176 172 176 181 165 175 178 179 186 186 183 193 199 183 174 174 175 183 186 183 176 163 152 134 131 126 114 107 105 107 103 91 81 74 75 96 97 99 108 107
187 175 179 171 173 177 183 165 169 155 173 160 165 171 187 196 179 179 178 183 180 171 163 142 146 125 133 136 136 124 118 113 113 106 103 94 84 76 67 84 100 106 109
177 165 171 171 174 173 173 159 149 147 149 158 158 173 182 197 190 181 178 176 149 141 139 140 116 152 144 137 150 114 113 130 134 126 115 104 100 90 84 79 72 68 103
119 161 167 169 173 168 147 149 127 143 157 160 184 180 182 200 183 166 179 167 146 143 134 127 135 155 152 157 165 146 133 140 132 139 132 123 121 114 105 93 72 57 63
105 154 160 158 170 166 167 153 165 148 114 76 62 114 147 142 149 158 191 136 144 143 157 154 146 161 175 160 98 44 37 72 145 141 139 137 136 136 127 110 88 64 47
47 158 159 163 158 168 171 126 114 117 85 93 74 58 44 62 74 90 114 94 99 115 142 161 153 172 178 172 145 126 117 65 33 37 131 138 144 146 131 131 122 96 76
43 23 157 155 156 151 120 111 89 81 72 82 46 57 62 58 62 81 79 95 68 75 109 78 22 164 163 7 148 101 126 166 137 11 33 130 136 135 143 143 117 118 116
28 17 38 141 135 139 146 135 157 150 150 148 137 134 109 86 89 91 91 91 87 71 65 53 42 25 7 99 345 50 355 122 139 142 8 39 115 136 131 129 136 138 125
43 38 2 75 109 141 153 156 155 139 114 126 128 126 114 110 111 110 108 107 100 103 97 87 75 69 89 19 98 115 79 58 60 124 163 165 79 183 133 130 134 125 112
58 48 41 43 56 84 114 144 154 152 143 138 143 136 136 127 122 120 126 126 129 132 127 126 129 124 131 124 127 141 132 129 129 143 123 168 140 90 37 101 119 127 129